Location: Peebles
(55.6412°N, 3.1714°W)
Time: 04:39:02
(UTC+01:00)

deb Agena D - Pass Details

Date: 05 July 2022
Orbit: 797 x 980 km, 99.8° (Epoch: 16 August)

Event Time Altitude Azimuth Distance (km) Brightness Sun altitude
Rises 00:06:17 0° 15° (NNE) 3,377 10.4 -10.1°
Reaches altitude 10° 00:08:46 10° 7° (N) 2,461 9.8 -10.2°
Maximum altitude 00:13:38 35° 304° (WNW) 1,368 7.8 -10.4°
Drops below altitude 10° 00:18:41 10° 240° (WSW) 2,553 8.5 -10.6°
Sets 00:21:19 0° 232° (SW) 3,519 9.2 -10.7°
